[[{"header":{"parameterUnit":"m.s-1","parameterCategory":1,"la1":30.2991,"la2":30.254,"lo1":-89.0895,"lo2":-89.0444,"dy":0.0017,"dx":0.0017,"nx":28,"ny":28,"refTime":"2024-03-23T03:00:00:Z","depth":0,"parameterNumber":2,"parameterNumberName":"U-component_of_WINDS"},"data":[0,0,0,0,0,0,0,0,0,0,0,0,0,0,0,0,0,0,0,0,0,0,0,0,0,0,0,0,0,0,0,0,0,0,0,0,0,0,0,0,0,0,0,0,0,0,0,0,0,0,0,0,0,0,0,0,0,0,4.5324,4.5324,0,4.5383,4.5383,4.5384,4.5328,4.5325,4.5323,4.5321,4.538,4.5384,4.5387,0,0,0,0,0,0,0,0,0,0,0,0,0,4.5162,4.5165,4.5324,4.5324,4.5325,4.5383,4.5384,4.5384,4.5328,4.5325,4.5322,4.532,4.5379,4.5383,4.5388,0,0,0,0,0,0,0,0,0,0,0,0,0,4.5228,4.5166,4.5324,4.5304,4.5303,4.5383,4.5384,4.5385,4.5328,4.5325,4.5322,4.5319,4.5378,4.5383,4.5388,4.549,0,0,4.5405,4.5408,0,0,0,0,0,0,0,0,4.5224,4.5234,4.5306,4.5305,4.5304,4.5344,4.5348,4.542,4.5329,4.5319,4.5321,4.5317,4.5371,4.5377,4.5395,4.5493,4.5495,4.5406,4.5409,4.5412,4.5413,0,0,0,0,0,0,0,4.522,4.5231,4.5347,4.5307,4.5306,4.5292,4.5298,4.5362,4.5363,4.5319,4.5315,4.5323,4.537,4.539,4.5396,4.5496,4.5406,4.5411,4.5414,4.5416,4.5682,4.5685,0,0,0,0,0,0,4.5217,4.5228,4.5345,4.5349,4.5255,4.5298,4.5304,4.5335,4.5362,4.5363,4.5326,4.532,4.5382,4.539,4.5398,4.552,4.5411,4.5417,4.542,4.5678,4.5683,4.5687,0,0,0,0,0,0,4.5214,4.5228,4.5343,4.5287,4.5301,4.5304,4.5339,4.5338,4.5358,4.5367,4.5367,4.5347,4.538,4.539,4.5468,4.5521,4.5419,4.5424,4.5674,4.568,4.5685,4.5764,0,0,0,0,0,0,4.521,4.5228,4.5266,4.5288,4.5304,4.5412,4.5342,4.5341,4.5368,4.5361,4.5386,4.5387,4.5378,4.546,4.5474,4.5527,4.5428,4.5669,4.5676,4.5683,4.5756,4.5771,4.5784,0,0,0,0,0,4.5204,4.5285,4.5268,4.5283,4.5352,4.5415,4.5424,4.5412,4.5372,4.5411,4.5418,4.5387,4.5513,4.5469,4.5483,4.5539,4.5666,4.5674,4.5682,4.575,4.5769,4.5784,0,0,0,0,0,0,4.5268,4.5288,4.5269,4.536,4.5387,4.5405,4.5454,4.5431,4.5469,4.5461,4.5444,4.545,4.5533,4.5544,4.5493,4.564,4.5583,4.5595,4.563,4.5647,4.5661,4.5656,4.5433,0,0,0,0,0,4.5293,4.5343,4.5357,4.5436,4.545,4.545,4.5477,4.5466,4.5492,4.5503,4.5514,4.5541,4.5587,4.5618,4.566,4.5758,4.5763,4.5804,4.5818,4.5829,4.5839,4.5893,4.5912,4.5715,4.5714,4.5714,0,0,4.5344,4.5361,4.5393,4.5449,4.5468,4.552,4.546,4.5517,4.5555,4.5511,4.5586,4.5596,4.5624,4.5713,4.5753,4.5724,4.5895,4.584,4.5849,4.5853,4.5904,4.5922,4.5939,4.572,4.5719,4.5718,0,0,4.5465,4.5483,4.5551,4.5572,4.5602,4.5601,4.5618,4.5641,4.5646,4.5721,4.5689,4.5735,4.5814,4.5836,4.5858,4.599,4.5963,4.6004,4.6076,4.6129,4.6144,4.6158,4.6206,4.6223,4.6014,4.6014,4.6014,0,4.5525,4.5602,4.5589,4.5649,4.5675,4.5638,4.5708,4.5728,4.5771,4.579,4.5758,4.5858,4.5874,4.5968,4.6001,4.6019,4.6038,4.6001,4.6143,4.6157,4.617,4.6215,4.6233,4.6019,4.6019,4.6018,4.6018,0,4.5675,4.5729,4.5781,4.5824,4.5855,4.592,4.5916,4.595,4.5937,4.594,4.6017,4.6036,4.6083,4.6104,4.6091,4.6197,4.6179,4.6146,4.6088,4.6193,4.6236,4.6253,4.6026,4.6024,4.6023,4.6022,0,0,4.5836,4.5872,4.5892,4.5911,4.5943,4.5984,4.6048,4.6094,4.6124,4.6155,4.6208,4.6277,4.6247,4.6271,4.6261,4.6307,4.6411,4.6268,4.6268,4.6294,4.653,4.6555,4.6575,4.6394,4.6397,4.64,4.6528,0,4.5958,4.6069,4.6059,4.6164,4.6214,4.6181,4.6237,4.6262,4.6267,4.6311,4.6316,4.6366,4.6322,4.6337,4.6381,4.6389,4.6458,4.638,4.6443,4.6446,4.6437,4.6597,4.6624,4.6744,4.6544,4.6547,4.6549,0,4.6115,4.6153,4.6263,4.6288,4.6309,4.6359,4.6401,4.6443,4.6472,4.6473,4.6502,4.6484,4.6548,4.649,4.6579,4.6526,4.6551,4.6559,4.6564,4.6569,4.6504,4.6608,4.6782,4.68,4.6575,4.6573,4.6571,0,4.6223,4.6301,4.6377,4.6395,4.6426,4.6462,4.6477,4.6502,4.6531,4.6569,4.6587,4.6632,4.6656,4.6691,4.6685,4.6643,4.6776,4.6717,4.6779,4.6779,4.6808,4.6806,4.6989,4.6825,4.6824,4.6824,4.6824,0,4.636,4.6429,4.6426,4.6473,4.6549,4.6538,4.6614,4.6624,4.6648,4.6696,4.6671,4.6717,4.6707,4.6753,4.6749,4.6824,4.6835,4.6838,4.6836,4.684,4.684,4.6857,4.6848,4.6829,4.6828,4.6827,4.6826,0,4.6493,4.6494,4.6575,4.6598,4.6606,4.6661,4.6681,4.6726,4.673,4.6792,4.6806,4.6812,4.6865,4.6863,4.6923,4.6921,4.7013,4.7002,4.7004,4.7001,4.7063,4.7058,4.7263,4.729,4.7108,4.711,4.7111,0,4.6581,4.6633,4.6663,4.6694,4.6711,4.6761,4.6791,4.6783,4.6815,4.6853,4.6893,4.6944,4.6984,4.7071,4.7081,4.7127,4.7117,4.7186,4.7123,4.7126,4.7118,4.7115,4.7121,4.7198,4.72,4.7201,4.7203,0,4.6736,4.6735,4.6779,4.6824,4.6861,4.6896,4.6928,4.6955,4.695,4.6987,4.7042,4.7074,4.7136,4.7187,4.7232,4.7247,4.7225,4.7222,4.7239,4.7244,4.7244,4.7245,4.7037,4.7218,4.7216,4.7215,4.7214,4.7214,4.685,4.6895,4.6924,4.6974,4.6998,4.7029,4.7072,4.7082,4.7128,4.7178,4.717,4.7232,4.726,4.7319,4.7338,4.7386,4.7362,4.7386,4.7392,4.7398,4.7406,4.7236,4.7394,4.7394,4.7393,4.7393,4.7393,0,4.7005,4.7022,4.7069,4.7115,4.7155,4.7131,4.7166,4.7201,4.7255,4.7284,4.7325,4.7389,4.7439,4.7453,4.7502,4.7538,4.7529,4.7551,4.7548,4.7552,4.7424,4.7405,4.7557,4.7557,4.7557,4.7557,4.7557,4.7557,4.709,4.7166,4.7168,4.7256,4.7273,4.7333,4.7355,4.7384,4.7407,4.7479,4.7521,4.753,4.7554,4.7604,4.7649,4.7652,4.7672,4.7698,4.7697,4.7577,4.7561,4.7545,4.7527,4.7702,4.7702,4.7821,4.7822,4.7823]},{"header":{"parameterUnit":"m.s-1","parameterCategory":1,"la1":30.2991,"la2":30.254,"lo1":-89.0895,"lo2":-89.0444,"dy":0.0017,"dx":0.0017,"nx":28,"ny":28,"refTime":"2024-03-23T03:00:00:Z","depth":0,"parameterNumber":3,"parameterNumberName":"V-component_of_WINDS"},"data":[0,0,0,0,0,0,0,0,0,0,0,0,0,0,0,0,0,0,0,0,0,0,0,0,0,0,0,0,0,0,0,0,0,0,0,0,0,0,0,0,0,0,0,0,0,0,0,0,0,0,0,0,0,0,0,0,0,0,-4.9656,-4.9658,0,-4.98,-4.9802,-4.9803,-4.9793,-4.9791,-4.9789,-4.9787,-4.9935,-4.9941,-4.9946,0,0,0,0,0,0,0,0,0,0,0,0,0,-4.9374,-4.9379,-4.9656,-4.9658,-4.9659,-4.98,-4.9802,-4.9804,-4.9794,-4.9791,-4.9789,-4.9786,-4.9933,-4.994,-4.9947,0,0,0,0,0,0,0,0,0,0,0,0,0,-4.9505,-4.9381,-4.9656,-4.9672,-4.9674,-4.9799,-4.9802,-4.9804,-4.9794,-4.9791,-4.9788,-4.9785,-4.9931,-4.9939,-4.9948,-5.0066,0,0,-4.9975,-4.9979,0,0,0,0,0,0,0,0,-4.9498,-4.9516,-4.9667,-4.9671,-4.9674,-4.9775,-4.9756,-4.9892,-4.9795,-4.9749,-4.9787,-4.9783,-4.9884,-4.9897,-4.9931,-5.0073,-5.0079,-4.9976,-4.9981,-4.9985,-4.9987,0,0,0,0,0,0,0,-4.9489,-4.9509,-4.9713,-4.967,-4.9674,-4.9672,-4.9687,-4.9782,-4.9833,-4.9753,-4.9752,-4.9769,-4.9886,-4.9922,-4.9934,-5.0082,-4.9975,-4.9983,-4.9989,-4.9992,-5.0331,-5.0334,0,0,0,0,0,0,-4.9476,-4.9502,-4.9708,-4.9717,-4.9576,-4.968,-4.9697,-4.9746,-4.9832,-4.9842,-4.9772,-4.9768,-4.9909,-4.9924,-4.9939,-5.0085,-4.9985,-4.9993,-4.9998,-5.0327,-5.0332,-5.0336,0,0,0,0,0,0,-4.947,-4.9494,-4.9702,-4.961,-4.9636,-4.9688,-4.9744,-4.9751,-4.9787,-4.9846,-4.9855,-4.98,-4.9907,-4.9927,-5.0035,-5.009,-4.9997,-5.0005,-5.0323,-5.0329,-5.0334,-5.0377,0,0,0,0,0,0,-4.9462,-4.9492,-4.9537,-4.9611,-4.9641,-4.9796,-4.9747,-4.9756,-4.9803,-4.9799,-4.9875,-4.9885,-4.9906,-5.0022,-5.0044,-5.0101,-5.0012,-5.0318,-5.0325,-5.0332,-5.0371,-5.0383,-5.0394,0,0,0,0,0,-4.9452,-4.9543,-4.954,-4.9565,-4.9698,-4.9799,-4.9816,-4.9839,-4.9807,-4.9853,-4.9892,-4.9882,-5.008,-5.0033,-5.0058,-5.0118,-5.0315,-5.0323,-5.0331,-5.0366,-5.0381,-5.0394,0,0,0,0,0,0,-4.9475,-4.9553,-4.955,-4.9668,-4.9727,-4.9797,-4.9856,-4.9854,-4.9923,-4.9917,-4.9942,-4.9959,-5.0069,-5.0104,-5.005,-5.0238,-5.0194,-5.0207,-5.0211,-5.0226,-5.0238,-5.0227,-5.0019,0,0,0,0,0,-4.9494,-4.9568,-4.9633,-4.9731,-4.9761,-4.9803,-4.9848,-4.986,-4.9923,-4.9947,-4.9993,-5.0054,-5.0131,-5.018,-5.0253,-5.0376,-5.0393,-5.043,-5.0441,-5.045,-5.0462,-5.0532,-5.0549,-5.0363,-5.0363,-5.0363,0,0,-4.9533,-4.9585,-4.9631,-4.9737,-4.9784,-4.9862,-4.9824,-4.9908,-4.9966,-4.996,-5.0066,-5.0102,-5.0172,-5.0288,-5.0342,-5.0321,-5.0517,-5.0461,-5.0468,-5.0475,-5.0542,-5.0559,-5.0575,-5.0369,-5.0368,-5.0367,0,0,-4.9645,-4.9692,-4.9779,-4.9828,-4.99,-4.9928,-4.9949,-5.002,-5.0044,-5.0151,-5.0148,-5.0218,-5.0348,-5.0399,-5.0442,-5.0575,-5.057,-5.0598,-5.0659,-5.0726,-5.0741,-5.0754,-5.0803,-5.0821,-5.061,-5.061,-5.061,0,-4.9685,-4.9802,-4.9824,-4.9909,-4.9957,-4.9955,-5.0045,-5.0091,-5.0183,-5.0216,-5.0192,-5.0357,-5.0403,-5.0533,-5.0566,-5.06,-5.0626,-5.059,-5.0737,-5.075,-5.0763,-5.081,-5.0829,-5.0613,-5.0612,-5.0612,-5.0612,0,-4.9849,-4.993,-4.9992,-5.0082,-5.0137,-5.0223,-5.026,-5.0312,-5.032,-5.0351,-5.0461,-5.0517,-5.0602,-5.0634,-5.0642,-5.0765,-5.0751,-5.0731,-5.0687,-5.0783,-5.0828,-5.0847,-5.0617,-5.0616,-5.0615,-5.0614,0,0,-4.9979,-5.0082,-5.0104,-5.0146,-5.0226,-5.029,-5.0377,-5.0461,-5.0506,-5.057,-5.0645,-5.0757,-5.074,-5.0788,-5.0803,-5.0862,-5.0966,-5.0835,-5.0838,-5.0859,-5.1108,-5.1123,-5.1143,-5.0963,-5.0966,-5.0969,-5.1102,0,-5.0101,-5.0255,-5.0279,-5.0415,-5.0492,-5.0493,-5.0569,-5.0627,-5.0659,-5.0728,-5.0763,-5.0843,-5.0813,-5.0843,-5.0902,-5.0941,-5.1017,-5.0932,-5.1034,-5.1037,-5.1018,-5.1166,-5.1182,-5.1305,-5.112,-5.1123,-5.1125,0,-5.0263,-5.0332,-5.0477,-5.0549,-5.0582,-5.065,-5.073,-5.0796,-5.0863,-5.0882,-5.0937,-5.0944,-5.1036,-5.0988,-5.1115,-5.1057,-5.11,-5.1126,-5.1132,-5.1143,-5.1088,-5.1183,-5.1344,-5.1364,-5.1153,-5.115,-5.1148,0,-5.0346,-5.0475,-5.0579,-5.0614,-5.07,-5.0748,-5.0786,-5.085,-5.09,-5.097,-5.1002,-5.1082,-5.1126,-5.1188,-5.1217,-5.1179,-5.1344,-5.1297,-5.1363,-5.1363,-5.1399,-5.1396,-5.1571,-5.1425,-5.1424,-5.1424,-5.1423,0,-5.048,-5.0568,-5.0617,-5.0681,-5.0781,-5.0808,-5.0906,-5.0943,-5.1,-5.1072,-5.1077,-5.1144,-5.1178,-5.1251,-5.1274,-5.1378,-5.1397,-5.1416,-5.1422,-5.1417,-5.1414,-5.1446,-5.1439,-5.1429,-5.1428,-5.1427,-5.1426,0,-5.0589,-5.0625,-5.0739,-5.0811,-5.0831,-5.0902,-5.0965,-5.1027,-5.1059,-5.115,-5.1173,-5.1223,-5.1309,-5.1344,-5.145,-5.1466,-5.1585,-5.1583,-5.1563,-5.1565,-5.163,-5.1624,-5.1832,-5.1861,-5.1694,-5.1695,-5.1697,0,-5.0673,-5.0741,-5.0821,-5.087,-5.091,-5.0988,-5.1039,-5.1068,-5.1121,-5.1203,-5.1257,-5.1343,-5.1413,-5.1552,-5.1598,-5.1679,-5.168,-5.1747,-5.1692,-5.1686,-5.1683,-5.1679,-5.1687,-5.1758,-5.1759,-5.1761,-5.1762,0,-5.0818,-5.0833,-5.0906,-5.0987,-5.1048,-5.1113,-5.1176,-5.1215,-5.1254,-5.1314,-5.1403,-5.1458,-5.1566,-5.1652,-5.1737,-5.1777,-5.1777,-5.1779,-5.1799,-5.1795,-5.1781,-5.1791,-5.1592,-5.1774,-5.1773,-5.1772,-5.1771,-5.1771,-5.0919,-5.098,-5.1047,-5.1129,-5.118,-5.1239,-5.1302,-5.1342,-5.1416,-5.1507,-5.152,-5.1615,-5.1682,-5.1795,-5.1839,-5.1914,-5.1897,-5.1926,-5.1933,-5.194,-5.1945,-5.1768,-5.193,-5.1929,-5.1929,-5.1929,-5.1929,0,-5.1066,-5.1109,-5.1184,-5.1273,-5.1338,-5.1332,-5.1402,-5.1457,-5.1541,-5.1603,-5.1673,-5.1776,-5.186,-5.1913,-5.1998,-5.2049,-5.2051,-5.207,-5.2068,-5.2077,-5.1955,-5.193,-5.2067,-5.2067,-5.2067,-5.2067,-5.2067,-5.2067,-5.115,-5.1255,-5.1278,-5.1408,-5.1451,-5.1545,-5.1586,-5.1641,-5.1691,-5.1806,-5.1876,-5.191,-5.1969,-5.2059,-5.2136,-5.215,-5.2182,-5.2203,-5.2215,-5.21,-5.2086,-5.2072,-5.2049,-5.2209,-5.2209,-5.2332,-5.2333,-5.2334]}]]